STARLINK-2427, 47837

Orbit data source: Space-Track

STARLINK-2427, 47837 is a payload satellite owned by SpaceX/Seattle (US) in LEO that was launched on Thu, 11 Mar 2021 UTC via an FALCON 9 launch vehicle from the Air Force Eastern Test Range (AFETR). Payload-class satellites include a variety of spacecraft equipped with specific instruments for various scientific and technological missions. These include communications satellites like Starlink; space stations such as the ISS; scientific satellites like the Hubble; Earth observation satellites from companies like Planet Labs, Umbra, and HawkEye 360; GPS; miniature CubeSats for education and research; and military/defense satellites.

Loading next visibility...
Identifier
47837, 2021-018BC
Orbit
LEO
Country
Flag of USUS
Related business
Manufacturer
SpaceX/Seattle
Mission
Operational Commercial Communications
Bus & Motor
STARLINK, Unknown motor
Mass
260 kg wet, ~248 kg dry
Launch date (UTC)
2021-03-11 (5 years ago)
Launch vehicle
FALCON 9
Launch site
Air Force Eastern Test Range (AFETR)
Object type
Payload
Rocket body
Debris
Shape & HBR
Box + 1 Pan, 10.1 m
Radar Cross Section
13.562 m², Large (>1 m²)

Expand to show TLE details & history
Last TLE update: 14 hours ago

TLE from 14 hours ago
0 STARLINK-2427
1 47837U 21018BC  25292.30632545  .00000217  00000-0  33434-4 0  9990
2 47837  53.0521 146.3148 0001388  81.0973 279.0173 15.06409537255575
Epoch: 2025-10-19T07:21Z
TLE epoch observation values (Epoch: 2025-10-19T07:21:06.518Z)
Latitude
-0.00005°
Longitude
8.01273°
Altitude
547.911 km
Speed
7.589 km/s
True Right ascension
09h 45m 15s
True Declination
0° 00' 00"
Sunlit
Object was in daylight at epoch
Visualization orbit readout
Latitude
Unknown
Longitude
Unknown
Altitude
Unknown
Speed
Unknown
Apparent Right ascension
Unknown
Apparent Declination
Unknown
Sunlit
N/A
Visualization observer readout
Local Sidereal Time
15:59:34
Azimuth
Unknown
Elevation
Unknown
Doppler factor
Unknown
Orbital elements
Apogee altitude
548.415 km
Perigee altitude
546.492 km
Semi-major axis
6,925.59 km
Eccentricity
0.00014
Inclination
53.0521°
RAAN
146.3148°
Arg. of periapsis
81.0973°
True anomaly
279.00159°
Mean anomaly
279.0173°
Eccentric anomaly
279.00945°
Mean motion
3.76581 °/min
Orbital period
95.6 mins
BSTAR
0.000033434
Loading maneuver chart data...
Computing Atmospheric mass density...

Documentation

Showing up to 5 results
|